| time (UTC) | temp F | wind direction | speed MPH | gust MPH | rain 1hr in | rain 24hr in | rain mn in | humidity % | barometer mb |
| 20260903115521 | 65 | 236 | 12.0 | 17.0 | 0.00 | 0.00 | 0.00 | 52 | 1004.4 |
| 20260903114520 | 65 | 241 | 12.0 | 19.0 | 0.00 | 0.00 | 0.00 | 51 | 1004.4 |
| 20260903113519 | 64 | 231 | 13.0 | 18.0 | 0.00 | 0.00 | 0.00 | 51 | 1004.4 |
| 20260903112540 | 63 | 228 | 12.0 | 18.0 | 0.00 | 0.00 | 0.00 | 55 | 1004.4 |
| 20260903111518 | 63 | 234 | 11.0 | 20.0 | 0.00 | 0.00 | 0.00 | 54 | 1004.5 |
| 20260903110517 | 64 | 232 | 12.0 | 16.0 | 0.00 | 0.00 | 0.00 | 53 | 1004.5 |
| 20260903105545 | 62 | 230 | 11.0 | 19.0 | 0.00 | 0.00 | 0.00 | 56 | 1004.6 |
| 20260903104544 | 62 | 226 | 12.0 | 19.0 | 0.00 | 0.00 | 0.00 | 54 | 1004.7 |
| 20260903103543 | 63 | 220 | 12.0 | 17.0 | 0.00 | 0.00 | 0.00 | 52 | 1004.6 |
| 20260903102542 | 65 | 221 | 13.0 | 21.0 | 0.00 | 0.00 | 0.00 | 51 | 1004.6 |
| 20260903101542 | 64 | 229 | 12.0 | 19.0 | 0.00 | 0.00 | 0.00 | 48 | 1004.7 |
| 20260903100540 | 64 | 233 | 12.0 | 19.0 | 0.00 | 0.00 | 0.00 | 53 | 1004.7 |
| 20260903095539 | 64 | 237 | 11.0 | 19.0 | 0.00 | 0.00 | 0.00 | 50 | 1004.7 |
| 20260903094538 | 61 | 247 | 9.0 | 16.0 | 0.00 | 0.00 | 0.00 | 60 | 1004.8 |
| 20260903093539 | 62 | 238 | 10.0 | 19.0 | 0.00 | 0.00 | 0.00 | 62 | 1004.8 |
| 20260903092537 | 64 | 216 | 13.0 | 21.0 | 0.00 | 0.00 | 0.00 | 61 | 1004.8 |
| 20260903091536 | 65 | 210 | 10.0 | 19.0 | 0.00 | 0.00 | 0.00 | 59 | 1004.8 |
| 20260903090535 | 64 | 218 | 14.0 | 22.0 | 0.00 | 0.00 | 0.00 | 58 | 1004.8 |
| 20260903085554 | 63 | 226 | 13.0 | 20.0 | 0.00 | 0.00 | 0.00 | 60 | 1004.8 |
| 20260903084553 | 63 | 218 | 12.0 | 19.0 | 0.00 | 0.00 | 0.00 | 61 | 1004.9 |
| 20260903083532 | 61 | 215 | 11.0 | 15.0 | 0.00 | 0.00 | 0.00 | 63 | 1005.0 |
| 20260903082531 | 60 | 223 | 10.0 | 15.0 | 0.00 | 0.00 | 0.00 | 67 | 1005.0 |
| 20260903081530 | 60 | 229 | 9.0 | 16.0 | 0.00 | 0.00 | 0.00 | 69 | 1005.1 |
| 20260903080529 | 60 | 233 | 10.0 | 16.0 | 0.00 | 0.00 | 0.00 | 69 | 1005.1 |
| 20260903075528 | 60 | 226 | 11.0 | 17.0 | 0.00 | 0.00 | 0.00 | 70 | 1005.2 |
| 20260903074527 | 60 | 222 | 10.0 | 17.0 | 0.00 | 0.00 | 0.00 | 71 | 1005.1 |
| 20260903073526 | 60 | 222 | 10.0 | 18.0 | 0.00 | 0.00 | 0.00 | 72 | 1005.1 |
| 20260903072525 | 60 | 224 | 13.0 | 20.0 | 0.00 | 0.00 | 0.00 | 73 | 1005.1 |
| 20260903071524 | 61 | 223 | 11.0 | 18.0 | 0.00 | 0.00 | 0.00 | 72 | 1005.0 |
| 20260903070523 | 60 | 215 | 11.0 | 17.0 | 0.00 | 0.00 | 0.00 | 72 | 1005.0 |
| 20260903065523 | 60 | 222 | 11.0 | 16.0 | 0.00 | 0.00 | 0.00 | 74 | 1005.1 |
| 20260903064521 | 60 | 225 | 11.0 | 16.0 | 0.00 | 0.00 | 0.00 | 75 | 1005.1 |
| 20260903063541 | 60 | 227 | 10.0 | 18.0 | 0.00 | 0.00 | 0.00 | 76 | 1005.1 |
| 20260903062519 | 59 | 226 | 9.0 | 15.0 | 0.00 | 0.00 | 0.00 | 79 | 1005.1 |
| 20260903061518 | 59 | 223 | 8.0 | 13.0 | 0.00 | 0.00 | 0.00 | 80 | 1005.1 |
| 20260903060520 | 58 | 216 | 8.0 | 12.0 | 0.00 | 0.00 | 0.00 | 82 | 1005.2 |
| 20260903055517 | 57 | 214 | 7.0 | 12.0 | 0.00 | 0.00 | 0.00 | 84 | 1005.2 |
| 20260903054546 | 57 | 214 | 7.0 | 12.0 | 0.00 | 0.00 | 0.00 | 87 | 1005.2 |
| 20260903053546 | 56 | 211 | 7.0 | 8.0 | 0.00 | 0.00 | 0.00 | 88 | 1005.2 |
| 20260903052545 | 55 | 214 | 6.0 | 10.0 | 0.00 | 0.00 | 0.00 | 91 | 1005.2 |
| 20260903051543 | 55 | 200 | 5.0 | 8.0 | 0.00 | 0.00 | 0.00 | 92 | 1005.3 |
| 20260903050543 | 55 | 199 | 5.0 | 7.0 | 0.00 | 0.00 | 0.00 | 93 | 1005.3 |
| 20260903045542 | 54 | 207 | 6.0 | 9.0 | 0.00 | 0.00 | 0.00 | 92 | 1005.3 |
| 20260903044601 | 55 | 205 | 7.0 | 10.0 | 0.00 | 0.00 | 0.00 | 92 | 1005.4 |
| 20260903043540 | 54 | 209 | 7.0 | 11.0 | 0.00 | 0.00 | 0.00 | 93 | 1005.4 |
| 20260903042538 | 55 | 203 | 6.0 | 10.0 | 0.00 | 0.00 | 0.00 | 93 | 1005.3 |
| 20260903041538 | 54 | 208 | 7.0 | 10.0 | 0.00 | 0.00 | 0.00 | 95 | 1005.3 |
| 20260903040537 | 55 | 208 | 6.0 | 9.0 | 0.00 | 0.00 | 0.00 | 95 | 1005.3 |
| 20260903035536 | 55 | 193 | 5.0 | 9.0 | 0.00 | 0.00 | 0.00 | 96 | 1005.3 |
| 20260903034535 | 55 | 181 | 4.0 | 8.0 | 0.00 | 0.00 | 0.00 | 97 | 1005.3 |
| 20260903033554 | 55 | 192 | 5.0 | 9.0 | 0.00 | 0.00 | 0.00 | 97 | 1005.3 |
| 20260903032532 | 55 | 196 | 6.0 | 10.0 | 0.00 | 0.00 | 0.00 | 98 | 1005.3 |
| 20260903031531 | 55 | 198 | 5.0 | 9.0 | 0.00 | 0.00 | 0.00 | 98 | 1005.2 |
| 20260903030532 | 55 | 201 | 5.0 | 9.0 | 0.00 | 0.00 | 0.00 | 98 | 1005.3 |
| 20260903025529 | 56 | 204 | 5.0 | 9.0 | 0.00 | 0.00 | 0.00 | 98 | 1005.3 |
| 20260903024528 | 56 | 197 | 5.0 | 9.0 | 0.00 | 0.00 | 0.00 | 98 | 1005.4 |
| 20260903023547 | 56 | 198 | 6.0 | 9.0 | 0.00 | 0.00 | 0.00 | 98 | 1005.4 |
| 20260903022528 | 56 | 195 | 6.0 | 10.0 | 0.00 | 0.00 | 0.00 | 98 | 1005.4 |
| 20260903021527 | 56 | 193 | 6.0 | 11.0 | 0.00 | 0.00 | 0.00 | 98 | 1005.4 |
| 20260903020526 | 56 | 184 | 6.0 | 11.0 | 0.00 | 0.00 | 0.00 | 98 | 1005.5 |
| 20260903015525 | 56 | 175 | 6.0 | 9.0 | 0.00 | 0.00 | 0.00 | 98 | 1005.5 |
| 20260903014544 | 56 | 171 | 5.0 | 9.0 | 0.00 | 0.00 | 0.00 | 99 | 1005.5 |
| 20260903013521 | 56 | 174 | 5.0 | 7.0 | 0.00 | 0.00 | 0.00 | 98 | 1005.5 |
| 20260903012520 | 56 | 174 | 5.0 | 7.0 | 0.00 | 0.00 | 0.00 | 99 | 1005.6 |
| 20260903011519 | 56 | 176 | 5.0 | 8.0 | 0.00 | 0.00 | 0.00 | 99 | 1005.6 |
| 20260903010518 | 56 | 179 | 5.0 | 8.0 | 0.00 | 0.00 | 0.00 | 99 | 1005.7 |
| 20260903005517 | 56 | 171 | 5.0 | 8.0 | 0.00 | 0.00 | 0.00 | 99 | 1005.8 |
| 20260903004518 | 56 | 170 | 5.0 | 9.0 | 0.00 | 0.00 | 0.00 | 98 | 1005.8 |
| 20260903003517 | 55 | 169 | 5.0 | 9.0 | 0.00 | 0.00 | 0.00 | 98 | 1005.9 |
| 20260903002546 | 55 | 167 | 5.0 | 8.0 | 0.00 | 0.00 | 0.00 | 98 | 1005.9 |
| 20260903001545 | 56 | 171 | 5.0 | 9.0 | 0.00 | 0.00 | 0.00 | 98 | 1006.0 |
| 20260903000544 | 56 | 171 | 5.0 | 10.0 | 0.00 | 0.00 | 0.00 | 98 | 1006.1 |
| 20260902235623 | 56 | 170 | 5.0 | 10.0 | 0.00 | 0.00 | 0.00 | 98 | 1006.2 |
| 20260902234541 | 55 | 167 | 5.0 | 10.0 | 0.00 | 0.00 | 0.00 | 98 | 1006.3 |
| 20260902233601 | 55 | 169 | 4.0 | 8.0 | 0.00 | 0.00 | 0.00 | 98 | 1006.4 |
| 20260902232539 | 55 | 170 | 4.0 | 9.0 | 0.00 | 0.00 | 0.00 | 97 | 1006.5 |
| 20260902231539 | 55 | 172 | 5.0 | 9.0 | 0.00 | 0.00 | 0.00 | 97 | 1006.5 |
| 20260902230538 | 55 | 169 | 4.0 | 7.0 | 0.00 | 0.00 | 0.00 | 97 | 1006.5 |
| 20260902225537 | 55 | 158 | 4.0 | 5.0 | 0.00 | 0.00 | 0.00 | 97 | 1006.6 |
| 20260902224536 | 55 | 171 | 4.0 | 7.0 | 0.00 | 0.00 | 0.00 | 96 | 1006.6 |
| 20260902223535 | 55 | 177 | 4.0 | 7.0 | 0.00 | 0.00 | 0.00 | 96 | 1006.7 |
| 20260902222534 | 55 | 186 | 4.0 | 7.0 | 0.00 | 0.00 | 0.00 | 96 | 1006.8 |
| 20260902221533 | 56 | 189 | 5.0 | 7.0 | 0.00 | 0.00 | 0.00 | 95 | 1006.8 |
| 20260902220532 | 56 | 191 | 5.0 | 7.0 | 0.00 | 0.00 | 0.00 | 95 | 1006.8 |
| 20260902215531 | 55 | 192 | 5.0 | 8.0 | 0.00 | 0.00 | 0.00 | 95 | 1006.9 |
| 20260902214609 | 55 | 190 | 4.0 | 7.0 | 0.00 | 0.00 | 0.00 | 94 | 1006.9 |
| 20260902213708 | 56 | 190 | 4.0 | 7.0 | 0.00 | 0.00 | 0.00 | 93 | 1007.0 |
| 20260902212529 | 56 | 188 | 4.0 | 7.0 | 0.00 | 0.00 | 0.00 | 92 | 1007.1 |
| 20260902211527 | 56 | 183 | 4.0 | 6.0 | 0.00 | 0.00 | 0.00 | 91 | 1007.1 |
| 20260902210527 | 56 | 187 | 3.0 | 6.0 | 0.00 | 0.00 | 0.00 | 91 | 1007.2 |
| 20260902205526 | 57 | 206 | 4.0 | 7.0 | 0.00 | 0.00 | 0.00 | 89 | 1007.2 |
| 20260902204524 | 57 | 216 | 5.0 | 8.0 | 0.00 | 0.00 | 0.00 | 88 | 1007.3 |
| 20260902203524 | 57 | 209 | 5.0 | 7.0 | 0.00 | 0.00 | 0.00 | 89 | 1007.3 |
| 20260902202522 | 57 | 206 | 5.0 | 8.0 | 0.00 | 0.00 | 0.00 | 87 | 1007.3 |
| 20260902201522 | 57 | 204 | 6.0 | 10.0 | 0.00 | 0.00 | 0.00 | 87 | 1007.4 |
| 20260902200520 | 57 | 216 | 7.0 | 10.0 | 0.00 | 0.00 | 0.00 | 87 | 1007.4 |
| 20260902195520 | 57 | 211 | 8.0 | 13.0 | 0.00 | 0.00 | 0.00 | 88 | 1007.4 |
| 20260902194519 | 57 | 203 | 7.0 | 15.0 | 0.00 | 0.00 | 0.00 | 87 | 1007.4 |
| 20260902193518 | 57 | 208 | 7.0 | 11.0 | 0.00 | 0.00 | 0.00 | 87 | 1007.4 |
| 20260902192537 | 58 | 208 | 9.0 | 14.0 | 0.00 | 0.00 | 0.00 | 87 | 1007.4 |
| 20260902191546 | 58 | 201 | 7.0 | 12.0 | 0.00 | 0.00 | 0.00 | 88 | 1007.4 |
| 20260902190545 | 58 | 198 | 5.0 | 9.0 | 0.00 | 0.00 | 0.00 | 88 | 1007.3 |
| 20260902185544 | 58 | 204 | 6.0 | 10.0 | 0.00 | 0.00 | 0.00 | 88 | 1007.3 |
| 20260902184543 | 58 | 212 | 7.0 | 11.0 | 0.00 | 0.00 | 0.00 | 87 | 1007.3 |
| 20260902183542 | 58 | 212 | 7.0 | 10.0 | 0.00 | 0.00 | 0.00 | 87 | 1007.4 |
| 20260902182541 | 59 | 202 | 6.0 | 10.0 | 0.00 | 0.00 | 0.00 | 85 | 1007.4 |
| 20260902181541 | 59 | 200 | 6.0 | 10.0 | 0.00 | 0.00 | 0.00 | 83 | 1007.4 |
| 20260902180540 | 59 | 201 | 6.0 | 11.0 | 0.00 | 0.00 | 0.00 | 81 | 1007.4 |
| 20260902175539 | 60 | 206 | 7.0 | 12.0 | 0.00 | 0.00 | 0.00 | 78 | 1007.4 |
| 20260902174618 | 60 | 210 | 6.0 | 12.0 | 0.00 | 0.00 | 0.00 | 75 | 1007.5 |
| 20260902173537 | 61 | 207 | 7.0 | 9.0 | 0.00 | 0.00 | 0.00 | 72 | 1007.5 |
| 20260902172536 | 61 | 211 | 7.0 | 8.0 | 0.00 | 0.00 | 0.00 | 70 | 1007.4 |
| 20260902171535 | 62 | 204 | 6.0 | 8.0 | 0.00 | 0.00 | 0.00 | 70 | 1007.3 |
| 20260902170534 | 62 | 196 | 5.0 | 8.0 | 0.00 | 0.00 | 0.00 | 68 | 1007.2 |
| 20260902165533 | 63 | 206 | 5.0 | 8.0 | 0.00 | 0.00 | 0.00 | 65 | 1007.2 |
| 20260902164552 | 63 | 225 | 6.0 | 9.0 | 0.00 | 0.00 | 0.00 | 64 | 1007.2 |
| 20260902163531 | 64 | 229 | 6.0 | 9.0 | 0.00 | 0.00 | 0.00 | 61 | 1007.2 |
| 20260902162530 | 65 | 227 | 8.0 | 10.0 | 0.00 | 0.00 | 0.00 | 60 | 1007.2 |
| 20260902161529 | 65 | 221 | 8.0 | 12.0 | 0.00 | 0.00 | 0.00 | 59 | 1007.1 |
| 20260902160528 | 66 | 230 | 8.0 | 12.0 | 0.00 | 0.00 | 0.00 | 61 | 1007.2 |
| 20260902155527 | 66 | 233 | 9.0 | 13.0 | 0.00 | 0.00 | 0.00 | 61 | 1007.2 |
| 20260902154526 | 66 | 226 | 10.0 | 14.0 | 0.00 | 0.00 | 0.00 | 60 | 1007.3 |
| 20260902153526 | 67 | 229 | 10.0 | 15.0 | 0.00 | 0.00 | 0.00 | 59 | 1007.3 |
| 20260902152524 | 67 | 227 | 8.0 | 15.0 | 0.00 | 0.00 | 0.00 | 58 | 1007.3 |
| 20260902151545 | 67 | 233 | 8.0 | 12.0 | 0.00 | 0.00 | 0.00 | 58 | 1007.3 |
| 20260902150522 | 67 | 246 | 8.0 | 12.0 | 0.00 | 0.00 | 0.00 | 57 | 1007.3 |
| 20260902145601 | 67 | 249 | 10.0 | 16.0 | 0.00 | 0.00 | 0.00 | 55 | 1007.3 |
| 20260902144520 | 68 | 246 | 8.0 | 14.0 | 0.00 | 0.00 | 0.00 | 56 | 1007.3 |
| 20260902143519 | 67 | 239 | 9.0 | 13.0 | 0.00 | 0.00 | 0.00 | 57 | 1007.4 |
| 20260902142538 | 68 | 245 | 8.0 | 13.0 | 0.00 | 0.00 | 0.00 | 55 | 1007.4 |
| 20260902141517 | 69 | 233 | 9.0 | 17.0 | 0.00 | 0.00 | 0.00 | 53 | 1007.3 |
| 20260902140516 | 68 | 241 | 8.0 | 13.0 | 0.00 | 0.00 | 0.00 | 54 | 1007.3 |
| 20260902135545 | 68 | 261 | 5.0 | 13.0 | 0.00 | 0.00 | 0.00 | 54 | 1007.3 |
| 20260902134604 | 67 | 241 | 8.0 | 14.0 | 0.00 | 0.00 | 0.00 | 56 | 1007.4 |
| 20260902133543 | 68 | 247 | 9.0 | 16.0 | 0.00 | 0.00 | 0.00 | 53 | 1007.4 |
| 20260902132542 | 68 | 246 | 7.0 | 12.0 | 0.00 | 0.00 | 0.00 | 53 | 1007.5 |
| 20260902131541 | 68 | 253 | 9.0 | 12.0 | 0.00 | 0.00 | 0.00 | 54 | 1007.5 |
| 20260902130540 | 68 | 272 | 7.0 | 12.0 | 0.00 | 0.00 | 0.00 | 53 | 1007.5 |
| 20260902125539 | 68 | 251 | 8.0 | 15.0 | 0.00 | 0.00 | 0.00 | 54 | 1007.5 |
| 20260902124538 | 67 | 270 | 8.0 | 17.0 | 0.00 | 0.00 | 0.00 | 55 | 1007.6 |
| 20260902123557 | 67 | 261 | 9.0 | 17.0 | 0.00 | 0.00 | 0.00 | 54 | 1007.6 |
| 20260902122536 | 66 | 266 | 9.0 | 14.0 | 0.00 | 0.00 | 0.00 | 54 | 1007.6 |
| 20260902121537 | 67 | 253 | 9.0 | 14.0 | 0.00 | 0.00 | 0.00 | 55 | 1007.6 |
| 20260902120535 | 67 | 258 | 8.0 | 13.0 | 0.00 | 0.00 | 0.00 | 55 | 1007.6 |